Ponca City, OK

11:23 PM CST on December 09, 2019 (GMT -0600)
Ponca City Municipal

Weather History for KPNC - September, 2019

Change the Weather History Date:

Sunday, September 15, 2019

  Actual Average Record
Temperature  
Mean Temperature 83 °F -  
Max Temperature 93 °F 83 °F 104 °F (1965)
Min Temperature 73 °F 62 °F 40 °F (1961)
Cooling Degree Days 18    
Growing Degree Days 33 (Base 50)    
Moisture  
Dew Point 67 °F    
Average Humidity 62    
Maximum Humidity 76    
Minimum Humidity 38    
Precipitation  
Precipitation 0.00 in - - ()
Sea Level Pressure  
Sea Level Pressure 30.03 in    
Wind  
Wind Speed 7 mph (South)    
Max Wind Speed 13 mph    
Max Gust Speed 18 mph    
Visibility 10 miles    
Events      
Averages and records for this station are not official NWS values.
T = Trace of Precipitation, MM = Missing Value Source: NWS Daily Summary

Daily Weather History Graph

Daily Weather History Graph

Search for Another Location

Airport or City:

Astronomy

Sep. 15, 2019 Rise Set
Actual Time 7:10 AM CDT 7:36 PM CDT
Civil Twilight 6:44 AM CDT 8:02 PM CDT
Nautical Twilight 6:14 AM CDT 8:32 PM CDT
Astronomical Twilight 5:42 AM CDT 9:03 PM CDT
Moon 8:46 PM CDT (9/15) 8:21 AM CDT (9/15)
Length of Visible Light 13h 17m
Length of Day
12h 25m
Full, 98% of the Moon is Illuminated
Sep 15
Full
Sep 21
Last Quarter
Sep 28
New
Oct 5
First Quarter
Oct 13
Full

Hourly Weather History & Observations

Time (CDT) Temp. Heat Index Dew Point Humidity Pressure Visibility Wind Dir Wind Speed Gust Speed Precip Events Conditions
12:53 AM 79.0 °F - 66.9 °F 66% 30.06 in 10.0 mi Variable 4.6 mph - N/A   Clear
1:53 AM 75.9 °F - 66.9 °F 74% 30.06 in 10.0 mi SSE 12.7 mph - N/A   Clear
2:53 AM 75.0 °F - 66.9 °F 76% 30.06 in 10.0 mi SSE 10.4 mph - N/A   Clear
3:53 AM 75.9 °F - 66.9 °F 74% 30.04 in 10.0 mi South 5.8 mph - N/A   Clear
4:53 AM 73.9 °F - 66.0 °F 76% 30.04 in 10.0 mi South 4.6 mph - N/A   Clear
5:53 AM 73.0 °F - 64.9 °F 76% 30.05 in 10.0 mi Variable 4.6 mph - N/A   Clear
6:53 AM 73.9 °F - 64.0 °F 71% 30.06 in 10.0 mi South 3.5 mph - N/A   Clear
7:53 AM 73.9 °F - 64.9 °F 73% 30.07 in 10.0 mi South 3.5 mph - N/A   Clear
8:53 AM 75.9 °F - 66.0 °F 71% 30.07 in 10.0 mi Variable 4.6 mph - N/A   Clear
9:53 AM 80.1 °F 82.3 °F 66.9 °F 64% 30.08 in 10.0 mi SSW 8.1 mph - N/A   Clear
10:53 AM 84.0 °F 87.0 °F 68.0 °F 58% 30.07 in 10.0 mi SSW 6.9 mph - N/A   Clear
12:53 PM 90.0 °F 92.8 °F 66.9 °F 46% 30.05 in 10.0 mi SSW 11.5 mph 18.4 mph N/A   Clear
1:53 PM 91.9 °F 95.4 °F 66.9 °F 44% 30.04 in 10.0 mi SSW 10.4 mph 16.1 mph N/A   Clear
2:53 PM 93.0 °F 96.4 °F 66.9 °F 42% 30.01 in 10.0 mi Variable 4.6 mph - N/A   Clear
3:53 PM 93.0 °F 95.9 °F 66.0 °F 41% 29.99 in 10.0 mi SSW 8.1 mph - N/A   Clear
4:53 PM 93.0 °F 94.6 °F 64.0 °F 38% 29.98 in 10.0 mi South 8.1 mph - N/A   Clear
5:53 PM 91.0 °F 94.3 °F 66.9 °F 45% 29.98 in 10.0 mi South 8.1 mph - N/A   Clear
6:53 PM 87.1 °F 89.9 °F 66.9 °F 51% 29.98 in 10.0 mi SSE 9.2 mph - N/A   Clear
7:53 PM 82.9 °F 85.8 °F 68.0 °F 60% 29.98 in 10.0 mi SSE 9.2 mph - N/A   Clear
8:53 PM 81.0 °F 83.8 °F 68.0 °F 65% 29.99 in 10.0 mi SSE 8.1 mph - N/A   Clear
9:53 PM 80.1 °F 82.7 °F 68.0 °F 67% 30.01 in 10.0 mi SSE 6.9 mph - N/A   Clear
10:53 PM 80.1 °F 82.7 °F 68.0 °F 67% 30.01 in 10.0 mi SSE 8.1 mph - N/A   Clear
11:53 PM 78.1 °F - 68.0 °F 71% 30.01 in 10.0 mi SSE 8.1 mph - N/A   Clear